Regional Weather Roundup
Issued by NWS

Home | Current Version | Previous Version | Text Only | Print | Product List | Glossary Off
Versions: 1 2 3 4 5 6 7 8 9 10 11 12 13 14 15 16 17 18 19 20 21 22 23 24 25 26 27 28 29 30 31 32 33 34 35 36 37 38 39 40 41 42 43 44 45 46 47 48 49 50

000
ASUS43 KLSX 271807
RWRMO

WEATHER SUMMARY FOR MISSOURI
NATIONAL WEATHER SERVICE SPRINGFIELD MO
100 PM CDT SAT MAY 27 2017

NOTE: "FAIR" INDICATES FEW OR NO CLOUDS BELOW 12,000 FEET WITH NO
       SIGNIFICANT WEATHER AND/OR OBSTRUCTIONS TO VISIBILITY.
       CURRENT SKY AND/OR WEATHER CONDITIONS ARE NOT AVAILABLE FOR
       CHILLICOTHE AND FARMINGTON.

MOZ001>031-035>038-043-044-053-054-271900-
...NORTHERN AND WESTERN MISSOURI...

CITY           SKY/WX    TMP DP  RH WIND       PRES   REMARKS
KANSAS CTY INT LGT RAIN  64  60  87 E23G31    29.73F
6HR MIN TEMP:  60; 6HR MAX TEMP:  70; 6HR PCP:  0.37;

KANSAS C DTWN  LGT RAIN  65  61  87 E21G30    29.71F
6HR MIN TEMP:  65; 6HR MAX TEMP:  72; 6HR PCP:  0.06;

LEE`S SUMMIT   TSTM      65  60  84 E20G33    29.79F
6HR MIN TEMP:  65; 6HR MAX TEMP:  74; 6HR PCP:  0.25;

ST JOSEPH      CLOUDY    67  64  90 NE8       29.77F
6HR MIN TEMP:  61; 6HR MAX TEMP:  68; 6HR PCP:  0.40;

CHILLICOTHE      N/A     73  63  70 NW5       29.91S
6HR MIN TEMP:  63; 6HR MAX TEMP:  73; 6HR PCP:  0.17;

KIRKSVILLE     PTSUNNY   75  62  64 W6        29.91S
6HR MIN TEMP:  62; 6HR MAX TEMP:  77;


$$
MOZ066>068-077>081-088>096-101>105-271900-
...SOUTHWEST MISSOURI...

CITY           SKY/WX    TMP DP  RH WIND       PRES   REMARKS
SPRINGFIELD    SUNNY     83  72  69 S13       29.77F
6HR MIN TEMP:  69; 6HR MAX TEMP:  85;

JOPLIN         CLOUDY    80  76  87 S14       29.75F
6HR MIN TEMP:  75; 6HR MAX TEMP:  84; 6HR PCP:  0.07;

BRANSON        MOSUNNY   86  72  62 S9G16     29.86F HX  92

$$
MOZ032>034-039>042-045>050-055>058-069>072-271900-
...CENTRAL MISSOURI...

CITY           SKY/WX    TMP DP  RH WIND       PRES   REMARKS
COLUMBIA       PTSUNNY   78  63  59 NE9       29.83F THUNDER
6HR MIN TEMP:  68; 6HR MAX TEMP:  83;

JEFFERSON CITY TSTM      79  67  66 S8        29.83F
6HR MIN TEMP:  68; 6HR MAX TEMP:  83; 6HR PCP:  0.02;

ROLLA          CLOUDY    73  69  87 N10       29.87R
6HR MIN TEMP:  66; 6HR MAX TEMP:  77; 6HR PCP:  0.03;

SEDALIA        TSTM      74  71  91 N9        29.84F FOG
6HR MIN TEMP:  67; 6HR MAX TEMP:  83; 6HR PCP:  0.18;

WHITEMAN AFB   PTSUNNY   75  72  91 NE12      29.84R
WARRENSBURG    PTSUNNY   72  61  68 N13G21    29.85S
OSAGE BEACH    PTSUNNY   79  72  78 SE9       29.82F

$$
MOZ051-052-059>065-271900-
...EAST CENTRAL MISSOURI...

CITY           SKY/WX    TMP DP  RH WIND       PRES   REMARKS
ST LOUIS INTL  PTSUNNY   82  63  52 E3        29.88F
6HR MIN TEMP:  70; 6HR MAX TEMP:  84;

SPIRIT OF STL  CLOUDY    77  66  68 E8        29.85F
6HR MIN TEMP:  68; 6HR MAX TEMP:  82;

ST CHARLES     SUNNY     80  63  55 NE5       29.86F
6HR MIN TEMP:  67; 6HR MAX TEMP:  82;


$$
MOZ072>076-082>087-097>100-106>115-271900-
...SOUTH CENTRAL AND SOUTHEAST MISSOURI...

CITY           SKY/WX    TMP DP  RH WIND       PRES   REMARKS
CAPE GIRARDEAU MOSUNNY   84  69  60 SW6       29.86F
6HR MIN TEMP:  70; 6HR MAX TEMP:  84; 6HR PCP: TRACE;

FARMINGTON     LGT RAIN  75  72  88 SW5       29.91R
6HR MIN TEMP:  66; 6HR MAX TEMP:  79; 6HR PCP: TRACE;

POPLAR BLUFF   PTSUNNY   82  75  79 SW9       29.87S
6HR MIN TEMP:  67; 6HR MAX TEMP:  83; 6HR PCP: TRACE;

WEST PLAINS    MOSUNNY   83  73  72 SW8       29.90F
6HR MIN TEMP:  69; 6HR MAX TEMP:  83;


$$




USA.gov is the U.S. government's official web portal to all federal, state and local government web resources and services.